Location: Bergnerzell
(49.1816°N, 10.2565°E)
Time: 14:27:58
(UTC+00:00)

IDEFIX/ARIANE 42P - Pass Details

Date: 22 August 2024
Orbit: 782 x 799 km, 98.5° (Epoch: 15 September)

Event Time Altitude Azimuth Distance (km) Brightness Sun altitude
Rises 23:38:16 0° 29° (NNE) 3,290 6.7 -29.4°
Reaches altitude 10° 23:41:39 10° 52° (NE) 2,358 5.5 -29.3°
Maximum altitude 23:44:37 15° 88° (E) 2,013 4.7 -29.3°
Enters shadow 23:44:59 15° 92° (E) 2,018 4.7 -29.3°
